Price, UT

1:15 PM MDT on September 19, 2017 (GMT -0600)
Carbon County

Weather History for KPUC - May, 2014

Change the Weather History Date:

Saturday, May 10, 2014

  Actual Average Record
Temperature  
Mean Temperature 52 °F -  
Max Temperature 66 °F 66 °F 84 °F (1989)
Min Temperature 39 °F 38 °F 21 °F (1986)
Degree Days  
Heating Degree Days 14    
Growing Degree Days 2 (Base 50)    
Moisture  
Dew Point 27 °F    
Average Humidity 41    
Maximum Humidity 65    
Minimum Humidity 21    
Precipitation  
Precipitation 0.01 in - - ()
Sea Level Pressure  
Sea Level Pressure 29.72 in    
Wind  
Wind Speed 7 mph (NE)    
Max Wind Speed 16 mph    
Max Gust Speed 26 mph    
Visibility 10 miles    
Events      
Averages and records for this station are not official NWS values.
T = Trace of Precipitation, MM = Missing Value Source: NWS Daily Summary

Daily Weather History Graph

Daily Weather History Graph

Search for Another Location

Airport or City:

Trip Planner

Search our weather history database for the weather conditions in past years. The results will help you decide how hot, cold, wet, or windy it might be!

Date:

Astronomy

May. 10, 2014 Rise Set
Actual Time 6:13 AM MDT 8:25 PM MDT
Civil Twilight 5:43 AM MDT 8:55 PM MDT
Nautical Twilight 5:06 AM MDT 9:32 PM MDT
Astronomical Twilight 4:26 AM MDT 10:13 PM MDT
Moon 4:25 PM MDT (5/10) 3:47 AM MDT (5/10)
Length of Visible Light 15h 12m
Length of Day
14h 12m
Waxing Gibbous, 82% of the Moon is Illuminated
May 10
Waxing Gibbous
May 14
Full
May 21
Last Quarter
May 28
New
Jun 5
First Quarter

Hourly Weather History & Observations

Time (MDT) Temp. Windchill Dew Point Humidity Pressure Visibility Wind Dir Wind Speed Gust Speed Precip Events Conditions
12:53 AM 44.1 °F 42.5 °F 26.1 °F 49% 29.86 in 10.0 mi North 3.5 mph - N/A   Clear
1:53 AM 42.1 °F 37.1 °F 26.1 °F 53% 29.85 in 10.0 mi North 8.1 mph - N/A   Clear
2:53 AM 43.0 °F 40.3 °F 26.1 °F 51% 29.83 in 10.0 mi North 4.6 mph - N/A   Partly Cloudy
3:53 AM 42.1 °F 37.7 °F 26.1 °F 53% 29.83 in 10.0 mi North 6.9 mph - N/A   Clear
4:53 AM 41.0 °F 38.0 °F 26.6 °F 57% 29.90 in 10.0 mi East 4.6 mph - N/A   Partly Cloudy
5:53 AM 39.0 °F 36.8 °F 25.0 °F 57% 29.81 in 10.0 mi Variable 3.5 mph - N/A   Scattered Clouds
6:53 AM 42.1 °F 38.4 °F 26.1 °F 53% 29.81 in 10.0 mi NE 5.8 mph - N/A   Scattered Clouds
7:53 AM 46.0 °F - 27.0 °F 47% 29.80 in 10.0 mi Calm Calm - N/A   Overcast
8:53 AM 48.9 °F - 28.0 °F 44% 29.81 in 10.0 mi Calm Calm - N/A   Overcast
9:53 AM 54.0 °F - 28.0 °F 37% 29.79 in 10.0 mi SE 6.9 mph - N/A   Scattered Clouds
10:53 AM 57.9 °F - 25.0 °F 28% 29.73 in 10.0 mi North - - N/A   Partly Cloudy
11:53 AM 62.1 °F - 21.9 °F 21% 29.70 in 10.0 mi WSW 6.9 mph - N/A   Partly Cloudy
12:53 PM 61.0 °F - 23.0 °F 23% 29.71 in 10.0 mi SSW 5.8 mph - N/A   Mostly Cloudy
1:53 PM 64.0 °F - 23.0 °F 21% 29.68 in 10.0 mi Variable 4.6 mph - N/A   Clear
2:53 PM 64.0 °F - 26.1 °F 24% 29.64 in 10.0 mi ESE 10.4 mph - N/A   Clear
3:53 PM 63.0 °F - 26.1 °F 25% 29.61 in 10.0 mi SW 8.1 mph - N/A   Mostly Cloudy
4:48 PM 62.6 °F - 26.6 °F 26% 29.68 in 10.0 mi ESE 16.1 mph 26.5 mph N/A   Mostly Cloudy
4:53 PM 62.1 °F - 28.0 °F 28% 29.59 in 10.0 mi SE 13.8 mph 26.5 mph N/A   Mostly Cloudy
5:00 PM 62.1 °F - 28.0 °F 28% 29.68 in 10.0 mi SE 15.0 mph - N/A   Mostly Cloudy
5:53 PM 61.0 °F - 28.0 °F 29% 29.60 in 10.0 mi East 15.0 mph - N/A   Overcast
6:53 PM 59.0 °F - 23.0 °F 25% 29.59 in 10.0 mi NE 8.1 mph - N/A   Overcast
7:53 PM 50.0 °F - 37.9 °F 63% 29.62 in 10.0 mi NNE 16.1 mph - 0.00 in   Scattered Clouds
8:53 PM 51.1 °F - 36.0 °F 56% 29.64 in 10.0 mi NNW 9.2 mph 23.0 mph 0.00 in   Overcast
9:53 PM 45.0 °F 37.9 °F 34.0 °F 65% 29.69 in 10.0 mi North 16.1 mph 26.5 mph 0.01 in   Overcast
10:53 PM 46.0 °F 41.4 °F 33.1 °F 61% 29.65 in 10.0 mi NNE 9.2 mph - N/A   Overcast
11:53 PM 46.0 °F 44.8 °F 30.0 °F 54% 29.61 in 10.0 mi WNW 3.5 mph - N/A   Mostly Cloudy